Regional Weather Roundup
Issued by NWS Nashville, TN

Home | Current Version | Previous Version | Text Only | Print | Product List | Glossary On
Versions: 1 2 3 4 5 6 7 8 9 10 11 12 13 14 15 16 17 18 19 20 21 22 23 24 25 26 27 28 29 30 31 32 33 34 35 36 37 38 39 40 41 42 43 44 45 46 47 48 49 50
069
ASUS44 KOHX 260610
RWROHX
MIDDLE TENNESSEE HOURLY WEATHER ROUNDUP
NATIONAL WEATHER SERVICE NASHVILLE TN
100 AM CDT SUN MAR 26 2017

NOTE: "FAIR" INDICATES FEW OR NO CLOUDS BELOW 12,000 FEET WITH
NO SIGNIFICANT WEATHER AND/OR OBSTRUCTIONS TO VISIBILITY.

* THESE REPORTS ARE NOT UNDER NWS QUALITY CONTROL AND MAY NOT
  REPORT WEATHER SUCH AS PRECIPITATION AND FOG.


TNZ005>011-023>034-057-059-062>066-078-080-260700
...NORTHERN MIDDLE TENNESSEE...

CITY           SKY/WX    TMP DP  RH WIND       PRES   REMARKS
CLARKSVILLE    CLOUDY    60  55  83 S8        29.95F
CROSSVILLE     LGT RAIN  56  54  93 CALM      30.06F
GALLATIN       CLOUDY    59  57  94 CALM      30.02S FOG
NASHVILLE      LGT RAIN  58  56  93 SE3       29.99R
PORTLAND       CLOUDY    57  55  94 S12       29.99S
SMYRNA         LGT RAIN  58  56  93 SE6       30.01F
SPARTA         MOCLDY    57  55  94 S8G14     30.03F FOG
SPRINGFIELD    CLOUDY    59  57  94 S9        29.97S
WEST NASHVILLE PTCLDY    57  57 100 S3        29.99F
$$
TNZ056-058-060-061-075>077-079-093>097-260700
...SOUTHERN MIDDLE TENNESSEE...

CITY           SKY/WX    TMP DP  RH WIND       PRES   REMARKS
COLUMBIA       CLOUDY   N/A N/A N/A CALM      29.96F
FAYETTEVILLE   CLOUDY    57  57 100 SE8       30.01F
MCMINNVILLE    CLOUDY    57  57 100 CALM      30.02F
SHELBYVILLE    MOCLDY   N/A N/A N/A MISG      30.00F
TULLAHOMA      CLOUDY    55  55 100 SE6       30.02F
WINCHESTER     MOCLDY    55  55 100 SE6       30.03S
$$


...KEY TO REMARKS...
VSB - VISIBILITY IN MILES
WCI - WIND CHILL INDEX
HX  - HEAT INDEX





USA.gov is the U.S. government's official web portal to all federal, state and local government web resources and services.